Погода Аксаково

Погода Аксаково : погода сейчас, прогноз погоды и архив. Всё, что Вы хотите узнать о погоде Аксаково!

Поиск расширенной информации на нашем сайте:

Другие новости

Новости СМИ2

Главная страница сайта

Новости сайта

03.07.2017

Напоминаем, что на нашем специализированном сайте Метеоцентр.Азия вы можете получить высокодетализированные автоматические прогнозы погоды по пунктам России, СНГ и мира в авиационном формате (включающие направление и скорость ветра, видимость, явления погоды, количество и форму облачности, нижнюю и верхнюю границу облачности).


Погода Аксаково - сегодня

Время (UTC), дата Ветер
(°,м/с) 
Видим.   Явления Облачность Т
(°С)
Тd
(°С)
f(%) Тe
(°С)
Pmin
(гПа)
dP
(гПа)
Po
(мм)
O2
(г/м3)
Тmin Tmax R s Состояние
почвы
03 24.05.18 230 (ЮЗ) 20000 м    9/3 600 м кучево-дожд., средняя 
[Cb calv|Ac As]
+17.6 +4.5 42 +18  1021.5  -0.4  736  278  +14        сухая 
06 24.05.18 250 (З) 20000 м    9/0 средняя 
[Ac As]
+21.7 +6.4 37 +22               
09 24.05.18 250 (З) 20000 м    9/0 средняя 
[Ac As]
+22.5 +5.9 34 +23               
12 24.05.18 250 (З) 20000 м    9/9 600 м кучево-дожд. 
[Cb cap]
+22.3 +8.8 42 +22               
18 24.05.18 270 (З) 10 км    9/0 средняя 
[Ac As]
+18 +9.9 59 +21  1016.6  -1.1  732  275           
21 24.05.18 020 (С) 10 км    10/10 600 м кучево-дожд. 
[Cb cap]
+15.5 +10.8 74 +20  1015.6  -1.2  731  276           
00 25.05.18 170 (Ю) 20000 м    10/10 600 м кучево-дожд. 
[Cb cap]
+14.3 +11.5 83 +20  1015.4  -0.5  731  278           
03 25.05.18 010 (С) 37  0200 м  слаб. ливневой дождь  10/10 1000 м кучево-дожд. 
[Cb cap]
+11.8   1015.4  731    +13.4    0.7    влажная 
06 25.05.18 210 (ЮЗ) 20000 м  {ливн. осадки}  9/6 600 м кучево-дожд., средняя 
[Cb cap|Ac As]
+13.5 +12.4 93 +20  1012.9  -2.4  729  277  +11.9         
09 25.05.18 020 (С) 6{10}  10 км  слаб. ливневой дождь  10/10 300 м кучево-дожд. 
[Cb cap]
+10 +9.2 95 +9  1014.3  0.8  730  282           
15 25.05.18 010 (С) 6-10{11}  20000 м    9/6 600 м кучево-дожд., средняя 
[Cb cap|As trans]
+8.7 +0.8 58 +7  1015.9  0.3  731  285    +14.7     
18 25.05.18 020 (С) 4{10}  10 км    9/9 600 м кучево-дожд. 
[Cb cap]
+7 -0.2 60 +6  1017.1  0.8  731  287           
21 25.05.18 360 (С) 10 км    9/0 верхняя 
[Ci sp]
+4.2 -1.3 67 +2  1017.9  0.3  731  290           
00 26.05.18 360 (С) 20000 м    4/0 средняя 
[Ac trans]
+2.6 -1.3 75 1019.1  732  292           
06 26.05.18 010 (С) 7-12{13}  20000 м    9/9 600 м кучево-дожд. 
[Cb cap]
+7.7 -3 47 +5  1021.4  1.5  734  288           
09 26.05.18 360 (С) 8-13{14}  20000 м    9/9 600 м кучево-дожд. 
[Cb cap]
+8 -4.4 41 +5  1022.8  1.4  735  288           
15 26.05.18 010 (С) 6-11{15}  20000 м    1/1 600 м 
[Sc]
+9 -7 32 +7  1024.6  0.8  737  288    +10.1       
18 26.05.18 360 (С) 10 км    ясно 
+4.7 -3.7 54 +6  1026.9  1.6  738  293           
21 26.05.18 тихо ()   10 км    ясно 
+3.1 -4.4 58 +3  1027.9  0.7  739  295           
00 27.05.18 тихо ()   20000 м    ясно 
+1.7 -3.4 69 +2  1028.3  0.2  739  296           
06 27.05.18 250 (З) 20000 м    3/0 средняя 
[Ac trans]
+12.5 -1.1 39 +12  1026  -0.7  738  285           
09 27.05.18 270 (З) 6{12}  20000 м    3/0 верхняя 
[Ci fib]
+16.1 -1.1 31 +16  1023.7  -1.8  737  280           
12 27.05.18 290 (З) 6{13}  20000 м    4/0 верхняя 
[Ci fib]
+18.4 -1.1 27 +18  1020.2  -3.1  735  277           
18 27.05.18 220 (ЮЗ) 4{11}  10 км    9/4 600 м кучево-дожд., средняя 
[Cb calv|Ac As]
+14 +0.6 40 +14  1016.1  -1.6  731  280           
21 27.05.18 210 (ЮЗ) 10 км    9/6 600 м кучево-дожд., средняя 
[Cb cap|Ac As]
+13.2 +0.7 42 +12  1012.9  -3.2  729  280           
Время (UTC), дата Ветер
(°,м/с) 
Видим.   Явления Облачность Т
(°С)
Тd
(°С)
f(%) Тe
(°С)
Pmin
(гПа)
dP
(гПа)
Po
(мм)
O2
(г/м3)
Тmin Tmax R s Состояние
почвы

Для получения пояснительной информации подведите курсор к названию столбца.

ПОГОДА Аксаково - архив

Всё, что Вы хотите узнать о погоде Аксаково - удобно и подробно!

Выберите нужную дату (начиная с 1 января 2015* года) и нажмите кнопку "Найти".
Будут отображены архивные сводки погоды по пункту Аксаково, начиная с указанной даты.


Отображать данные в формате CSV (для использования в таблицах Excel)


Внимание! Наш архив погоды предназначен исключительно для личного некоммерческого использования в познавательных целях. Если Вам необходимы официальные справки о состоянии погоды (для производственных, юридических, коммерческих и т.п. целей), обращайтесь в органы Росгидромета.

*Примечание: данная дата относится к архиву по метеостанциям СССР (Россия, СНГ, Балтия).
Архив по метеостанциям Зарубежной Европы и Азии (кроме Китая) хранится 10 дней, по другим регионам земного шара (Китай, Африка, Америка, Австралия, Океания) - 1 день.

Аксаково - район местоположения метеостанции


Название, широта, долгота, высота метеостанции:
Аксаково 54°ш. 54.2°д. 348 м над ур. моря [Российская Федерация]

Дополнительная информация

В oтличие oт бoльшинства пoгoдных сайтoв мы публикуем пoдрoбную метеoинфoрмацию в детальнoм прoфессиoнальнoм фoрмате.

Характеристики температуры и влажнoсти вoздуха измеряются на высoте 2 м в тени вдали oт зданий и деревьев.
Скoрoсть ветра измеряется на высoте 10 м (на урoвне рoста челoвека скoрoсть ветра ниже в 1.5-2 раза). Если метеoстанция нахoдится в гoрoде или в лесу, тo скoрoсть ветра занижена на 2-4 м/с пo сравнению с oткрытым местoм. Скoрoсть ветра над акватoриями крупных рек и oзёр, а также на вершинах хoлмoв на 2-5 м/с выше, чем в oбычных услoвиях.
Атмoсфернoе давление в разных тoчках местнoсти мoжет значительнo oтличаться oт давления на метеoстанции, в зависимoсти oт услoвий рельефа (при пoдъёме на 10 м давление пoнижается примернo на 1 мм рт.ст.).